FREGAT DEB, 45841

Orbit data source: Space-Track

FREGAT DEB, 45841 is space debris in LEO originally from a launch on Mon, 18 Jul 2011 UTC launched from the Tyuratam Missile And Space Complex (TTMTR). Debris objects in space refer to the collection of defunct objects orbiting the Earth. Examples of debris include non-operational satellites, rocket bodies, and fragments generated from explosions, collisions, or faulty payload assembly.

Loading next visibility...
Identifier
45841, 2011-037CB
Orbit
LEO
Country
Flag of CISCIS
Related business
Manufacturer
Lavochkin
Mission
Spacecraft
Bus & Motor
Unknown
Mass
Unknown
Launch date (UTC)
2011-07-18 (14 years ago)
Launch vehicle
Unknown
Launch site
Tyuratam Missile And Space Complex (TTMTR)
Object type
Payload
Rocket body
Debris
Shape & HBR
Unknown shape, 0.1 m
Radar Cross Section
Small (<0.1 m²)

Expand to show TLE details & history
Last TLE update: 1 day ago

TLE from 1 day ago
0 FREGAT DEB
1 45841U 11037CB  25349.13714713  .00001067  00000-0  19272-2 0  9991
2 45841  51.5067 268.5323 1927195 123.1472 256.9189 10.59560114213997
Epoch: 2025-12-15T03:17Z
TLE epoch observation values (Epoch: 2025-12-15T03:17:29.512Z)
Latitude
0.00001°
Longitude
135.11931°
Altitude
3,044.361 km
Speed
6.254 km/s
True Right ascension
17h 54m 07s
True Declination
0° 00' 00"
Sunlit
Object was in daylight at epoch
Visualization orbit readout
Latitude
Unknown
Longitude
Unknown
Altitude
Unknown
Speed
Unknown
Apparent Right ascension
Unknown
Apparent Declination
Unknown
Sunlit
N/A
Visualization observer readout
Local Sidereal Time
13:57:58
Azimuth
Unknown
Elevation
Unknown
Doppler factor
Unknown
Orbital elements
Apogee altitude
4,066.133 km
Perigee altitude
690.965 km
Semi-major axis
8,756.686 km
Eccentricity
0.19272
Inclination
51.5067°
RAAN
268.5323°
Arg. of periapsis
123.1472°
True anomaly
236.93164°
Mean anomaly
256.9189°
Eccentric anomaly
246.77193°
Mean motion
2.6487 °/min
Orbital period
135.92 mins
BSTAR
0.0019272
Loading maneuver chart data...
Computing Atmospheric mass density...
Loading historical data...
Loading historical data...
Loading historical data...
Loading historical data...
Loading historical data...
Loading historical data...
Loading historical data...

Documentation

Showing up to 5 results
|